TimeCST,TemperatureF,Dew PointF,Humidity,Sea Level PressureIn,VisibilityMPH,Wind Direction,Wind SpeedMPH,Gust SpeedMPH,PrecipitationIn,Events,Conditions,WindDirDegrees,DateUTC
12:15 AM,57.2,55.8,95,29.99,2.5,ENE,13.8,18.4,N/A,Rain,Rain,70,2013-01-08 06:15:00
12:55 AM,57.9,56.5,95,29.98,2.5,ENE,12.7,19.6,N/A,,Overcast,70,2013-01-08 06:55:00
1:15 AM,58.3,57.0,96,29.97,4.0,ENE,12.7,-,N/A,,Overcast,70,2013-01-08 07:15:00
1:35 AM,58.5,57.2,96,29.97,3.0,ENE,12.7,-,N/A,,Overcast,70,2013-01-08 07:35:00
1:55 AM,58.5,57.2,96,29.96,4.0,ENE,12.7,-,N/A,,Overcast,70,2013-01-08 07:55:00
2:15 AM,58.5,57.2,96,29.96,4.0,ENE,11.5,17.3,N/A,,Overcast,70,2013-01-08 08:15:00
2:35 AM,58.5,57.2,96,29.96,4.0,ENE,11.5,-,N/A,,Overcast,60,2013-01-08 08:35:00
2:55 AM,58.5,57.2,96,29.98,4.0,NE,9.2,-,N/A,,Overcast,50,2013-01-08 08:55:00
3:15 AM,58.5,57.2,96,29.97,4.0,NE,10.4,-,N/A,,Overcast,50,2013-01-08 09:15:00
3:35 AM,58.5,57.2,96,29.98,5.0,NNE,4.6,-,N/A,,Overcast,30,2013-01-08 09:35:00
3:55 AM,58.3,57.2,96,29.95,4.0,ENE,8.1,-,N/A,Rain,Light Rain,60,2013-01-08 09:55:00
4:15 AM,58.3,57.2,96,29.91,4.0,East,11.5,-,0.01,Rain,Rain,80,2013-01-08 10:15:00
4:35 AM,58.8,57.4,95,29.90,5.0,ENE,9.2,16.1,0.01,,Drizzle,70,2013-01-08 10:35:00
4:55 AM,58.3,57.0,96,29.89,4.0,East,11.5,-,0.02,Rain,Light Rain,80,2013-01-08 10:55:00
5:15 AM,58.3,57.0,96,29.89,5.0,NE,5.8,-,N/A,,Light Drizzle,40,2013-01-08 11:15:00
5:35 AM,58.6,57.4,96,29.90,5.0,ENE,5.8,-,0.01,,Overcast,60,2013-01-08 11:35:00
5:55 AM,58.6,57.4,96,29.89,4.0,ENE,4.6,-,0.01,,Overcast,70,2013-01-08 11:55:00
6:15 AM,58.5,57.2,96,29.90,3.0,Calm,Calm,-,N/A,,Overcast,0,2013-01-08 12:15:00
6:35 AM,59.0,57.6,95,29.89,3.0,East,4.6,-,N/A,,Overcast,80,2013-01-08 12:35:00
6:55 AM,58.8,57.6,96,29.90,2.0,ENE,4.6,-,N/A,,Overcast,70,2013-01-08 12:55:00
7:15 AM,59.0,57.6,95,29.91,1.5,NNE,3.5,-,N/A,,Overcast,30,2013-01-08 13:15:00
7:35 AM,59.0,58.1,97,29.91,1.0,NE,4.6,-,N/A,,Overcast,50,2013-01-08 13:35:00
7:55 AM,59.2,57.9,96,29.92,0.5,NNE,6.9,-,N/A,Fog,Fog,20,2013-01-08 13:55:00
8:15 AM,59.2,58.1,96,29.93,1.8,NNE,8.1,-,N/A,,Overcast,30,2013-01-08 14:15:00
8:35 AM,58.8,57.9,97,29.93,1.5,NNE,10.4,-,N/A,,Overcast,30,2013-01-08 14:35:00
8:55 AM,58.6,57.6,96,29.93,1.2,NNE,8.1,-,N/A,,Overcast,30,2013-01-08 14:55:00
9:15 AM,59.7,58.6,96,29.95,2.0,NNE,4.6,-,N/A,,Overcast,20,2013-01-08 15:15:00
9:35 AM,60.3,59.2,96,29.97,3.0,Calm,Calm,-,N/A,Rain,Light Rain,0,2013-01-08 15:35:00
9:55 AM,60.8,59.7,96,29.95,3.0,NE,5.8,-,N/A,Rain,Light Rain,50,2013-01-08 15:55:00
10:15 AM,61.2,60.1,96,29.94,3.0,ENE,4.6,-,0.01,Rain,Rain,60,2013-01-08 16:15:00
10:35 AM,62.6,61.5,96,29.93,4.0,East,4.6,-,0.01,,Overcast,100,2013-01-08 16:35:00
10:55 AM,65.1,64.0,96,29.91,5.0,East,4.6,-,0.01,,Overcast,90,2013-01-08 16:55:00
11:15 AM,66.6,65.3,96,29.89,7.0,East,5.8,-,N/A,,Overcast,80,2013-01-08 17:15:00
11:55 AM,68.7,67.5,96,29.90,5.0,SE,5.8,-,N/A,Rain,Rain,130,2013-01-08 17:55:00
12:15 PM,69.4,68.0,95,29.88,7.0,SE,6.9,-,N/A,,Mostly Cloudy,130,2013-01-08 18:15:00
12:35 PM,70.0,68.4,95,29.87,10.0,SSE,8.1,-,N/A,,Overcast,160,2013-01-08 18:35:00
12:55 PM,70.2,68.5,95,29.86,10.0,SSE,10.4,-,N/A,,Overcast,150,2013-01-08 18:55:00
1:15 PM,70.0,68.0,93,29.84,10.0,South,6.9,-,N/A,Thunderstorm,Overcast,170,2013-01-08 19:15:00
1:55 PM,68.9,66.4,92,29.84,4.0,SSW,8.1,-,0.02,Rain,Light Rain,200,2013-01-08 19:55:00
2:15 PM,68.7,66.4,92,29.83,10.0,SSE,4.6,-,N/A,,Overcast,150,2013-01-08 20:15:00
2:35 PM,68.9,66.6,92,29.83,10.0,SE,8.1,-,N/A,,Overcast,140,2013-01-08 20:35:00
2:55 PM,68.5,66.2,92,29.82,7.0,ESE,10.4,-,N/A,,Overcast,120,2013-01-08 20:55:00
3:15 PM,67.6,65.5,93,29.83,7.0,ESE,13.8,-,N/A,,Overcast,110,2013-01-08 21:15:00
3:35 PM,67.8,65.7,93,29.82,7.0,ESE,15.0,19.6,N/A,,Overcast,120,2013-01-08 21:35:00
3:55 PM,67.3,65.1,93,29.81,7.0,ESE,13.8,20.7,N/A,,Scattered Clouds,120,2013-01-08 21:55:00
4:15 PM,67.1,64.8,92,29.82,7.0,SE,16.1,21.9,N/A,,Clear,130,2013-01-08 22:15:00
4:35 PM,67.1,64.9,93,29.81,7.0,ESE,18.4,24.2,N/A,,Mostly Cloudy,120,2013-01-08 22:35:00
4:55 PM,67.1,64.9,93,29.81,7.0,ESE,12.7,21.9,N/A,,Mostly Cloudy,120,2013-01-08 22:55:00
5:15 PM,67.1,64.8,92,29.80,7.0,ESE,16.1,19.6,N/A,,Clear,110,2013-01-08 23:15:00
5:35 PM,66.6,64.4,93,29.80,10.0,ESE,13.8,-,N/A,,Clear,120,2013-01-08 23:35:00
5:55 PM,66.7,64.2,92,29.81,10.0,ESE,18.4,24.2,N/A,,Clear,120,2013-01-08 23:55:00
6:15 PM,67.6,65.1,92,29.83,10.0,ESE,18.4,24.2,N/A,,Mostly Cloudy,120,2013-01-09 00:15:00
6:35 PM,67.6,65.3,92,29.84,10.0,ESE,12.7,-,N/A,,Overcast,120,2013-01-09 00:35:00
6:55 PM,67.5,65.3,93,29.85,7.0,SE,13.8,-,N/A,,Overcast,130,2013-01-09 00:55:00
7:15 PM,67.3,65.3,93,29.84,7.0,ESE,13.8,-,N/A,,Overcast,120,2013-01-09 01:15:00
7:55 PM,67.5,65.3,93,29.82,10.0,SE,18.4,25.3,N/A,,Overcast,130,2013-01-09 01:55:00
8:15 PM,67.5,65.3,93,29.79,10.0,ESE,25.3,31.1,N/A,,Scattered Clouds,120,2013-01-09 02:15:00
8:35 PM,67.5,65.3,93,29.80,10.0,ESE,18.4,29.9,N/A,,Scattered Clouds,120,2013-01-09 02:35:00
8:55 PM,67.8,65.7,93,29.81,10.0,ESE,21.9,26.5,N/A,,Mostly Cloudy,110,2013-01-09 02:55:00
9:15 PM,68.2,65.7,92,29.82,10.0,ESE,16.1,21.9,N/A,,Overcast,120,2013-01-09 03:15:00
9:35 PM,67.6,65.3,92,29.84,10.0,ESE,11.5,-,N/A,,Overcast,120,2013-01-09 03:35:00
9:55 PM,67.8,65.5,92,29.87,10.0,SE,15.0,23.0,N/A,,Overcast,140,2013-01-09 03:55:00
10:15 PM,68.2,65.8,92,29.86,10.0,SE,15.0,21.9,N/A,,Overcast,130,2013-01-09 04:15:00
10:35 PM,68.0,65.7,92,29.85,10.0,ESE,16.1,-,N/A,,Overcast,120,2013-01-09 04:35:00
11:15 PM,68.7,66.0,91,29.86,10.0,ESE,17.3,24.2,N/A,,Overcast,120,2013-01-09 05:15:00
11:35 PM,68.4,65.5,90,29.86,10.0,ESE,18.4,24.2,N/A,,Overcast,120,2013-01-09 05:35:00
11:55 PM,68.5,65.7,90,29.85,7.0,ESE,18.4,24.2,N/A,Rain,Light Rain,120,2013-01-09 05:55:00